#timestamp,LO_Frequency,Hit,StdDev 
1638381615.5,286046999.0,N
1638381635.3,286046996.8,Y
1638381655.1,286047000.3,P
1638381675.9,286046999.9,N
1638381695.7,286047000.4,N
1638381715.5,286046998.9,N
1638381735.4,286046998.9,N
1638381755.2,286046999.1,N
1638381775.1,286046999.6,N
1638381776.0,286046999.6,N
1638381795.8,286047000.5,N
1638381815.6,286046998.2,N
1638381835.5,286046998.3,N
1638381855.3,286046996.7,Y
1638381875.2,286047000.9,P
1638381895.9,286047002.3,N
1638381915.7,286047002.2,N
1638381935.6,286047002.1,N
1638381955.4,286047002.5,N
1638381975.2,286047001.4,N
1638381995.1,286046999.8,N
1638381996.0,286046999.8,N
1638382015.8,286047001.6,N
1638382035.7,286047001.6,N
1638382055.5,286047000.1,N
1638382075.3,286047002.1,N
1638382095.2,286047004.1,Y
1638382115.0,286047001.7,P
1638382115.9,286047001.7,P
1638382135.8,286047003.9,P
1638382155.6,286047003.2,Y
1638382175.4,286047004.2,P
1638382195.3,286047001.6,N
1638382215.1,286047001.4,N
1638382235.9,286047001.9,N
1638382255.7,286047002.2,N
1638382275.5,286047001.8,N
1638382295.4,286047001.8,N
1638382315.2,286047001.4,N
1638382335.0,286047003.5,Y
1638382335.9,286047003.5,P
1638382355.8,286047000.0,N
1638382375.6,286047000.2,N
1638382395.5,286047000.7,N
1638382415.3,286046996.5,N
1638382435.1,286046998.8,N
1638382455.9,286046999.2,N
1638382475.7,286046997.1,N
1638382495.5,286046996.5,N
1638382515.4,286046999.6,N
1638382535.2,286046999.3,N
1638382555.1,286046999.0,N
1638382556.0,286046999.0,N
1638382575.8,286046998.9,N
1638382595.6,286046999.5,N
1638382615.5,286046999.5,N
1638382635.3,286046999.6,N
1638382655.1,286046999.0,N
1638382675.9,286046998.6,N
1638382695.7,286046998.1,N
1638382715.6,286046998.4,N
1638382735.4,286046996.5,N
1638382755.2,286046998.8,N
1638382775.1,286046999.1,N
1638382776.0,286046999.1,N
1638382795.8,286046998.9,N
1638382815.6,286046998.7,N
1638382835.5,286047001.0,N
1638382855.3,286046998.5,N
1638382875.2,286046998.1,N
1638382895.9,286047000.8,N
1638382915.7,286047002.4,N
1638382935.6,286047002.3,N
1638382955.4,286046999.7,N
1638382975.2,286047000.1,N
1638382995.1,286047001.2,N
1638382996.0,286047001.2,N
1638383015.8,286046998.3,N
1638383035.7,286047000.8,N
1638383055.5,286047002.5,N
1638383075.3,286047001.0,N
1638383095.2,286046998.2,N
1638383115.0,286046998.8,N
1638383115.9,286046998.8,N
1638383135.7,286046998.7,N
1638383155.6,286046999.2,N
1638383175.4,286046999.6,N
1638383195.3,286046999.1,N
1638383215.1,286046998.9,N
1638383216.0,286046998.9,N
1638383235.8,286046998.6,N
1638383255.7,286046998.3,N
1638383275.5,286046998.7,N
1638383295.3,286046998.4,N
1638383315.2,286046998.9,N
1638383335.0,286046998.4,N
1638383335.9,286046998.4,N
1638383355.8,286046998.8,N
1638383375.6,286046998.7,N
1638383395.4,286046998.8,N
1638383415.3,286046999.0,N
1638383435.1,286046998.5,N
1638383455.8,286046999.4,N
1638383475.7,286046999.2,N
1638383495.5,286046999.6,N
1638383515.4,286046998.8,N
1638383535.2,286046998.7,N
1638383555.0,286046999.3,N
1638383555.9,286046999.3,N
1638383575.8,286046999.4,N
1638383595.6,286046999.6,N
1638383615.4,286046997.0,Y
1638383635.3,286046996.9,P
1638383655.1,286046997.4,N
1638383675.9,286046998.9,N
1638383695.7,286047000.7,N
1638383715.5,286046998.8,N
1638383735.4,286046998.9,N
1638383755.2,286046999.6,N
1638383775.1,286046997.7,N
1638383776.0,286046997.7,N
1638383795.8,286046997.7,N
1638383815.6,286046996.9,N
1638383835.5,286046997.4,N
1638383855.3,286046997.6,N
1638383875.1,286046997.6,N
1638383895.9,286046997.9,N
1638383915.7,286046998.0,N
1638383935.6,286046996.5,Y
1638383955.4,286046998.9,P
1638383975.2,286047000.6,N
1638383995.1,286047002.3,N
1638383996.0,286047002.3,N
1638384015.8,286047001.0,N
1638384035.6,286046998.1,N
1638384055.5,286046998.6,N
1638384075.3,286046998.5,N
1638384095.2,286047001.2,N
1638384115.9,286047001.1,N
1638384135.7,286046998.8,N
1638384155.6,286047000.8,N
1638384175.4,286046999.1,N
1638384195.2,286046999.0,N
1638384215.1,286046998.2,N
1638384216.0,286046998.2,N
1638384235.8,286046998.7,N
1638384255.7,286046997.1,N
1638384275.5,286046996.6,N
1638384295.3,286046997.3,N
1638384315.2,286046997.0,N
1638384335.0,286046996.8,N
1638384335.9,286046996.8,N
1638384355.7,286046999.6,N
1638384375.6,286046999.3,N
1638384395.4,286046999.1,N
1638384415.3,286046996.6,N
1638384435.1,286046997.0,N
1638384436.0,286046997.0,N
1638384455.8,286046994.9,Y
1638384475.7,286046996.8,P
1638384495.5,286046999.6,N
1638384515.3,286046999.4,N
1638384535.2,286046998.4,N
1638384555.0,286046999.3,N
1638384555.9,286046999.3,N
1638384575.8,286046999.6,N
1638384595.6,286046996.7,Y
1638384615.4,286046998.3,P
1638384635.3,286047000.9,N
1638384655.1,286047000.4,N
1638384675.9,286047000.0,N
1638384695.7,286047001.1,N
1638384715.5,286046999.6,N
1638384735.4,286046997.8,N
1638384755.2,286046997.4,N
1638384775.0,286046997.3,N
1638384775.9,286046997.3,N
1638384795.8,286046999.5,N
1638384815.6,286046996.8,N
1638384835.5,286046999.5,N
1638384855.3,286046996.8,N
1638384875.1,286046999.5,N
1638384895.9,286046996.5,N
1638384915.7,286046996.5,N
1638384935.5,286046999.4,N
1638384955.4,286046999.4,N
1638384975.2,286046999.0,N
1638384995.1,286046996.5,N
1638384996.0,286046996.5,N
1638385015.8,286046996.8,N
1638385035.6,286046999.3,N
1638385055.5,286046996.6,N
1638385075.3,286046996.7,N
1638385095.2,286046996.9,N
1638385115.9,286046997.9,N
1638385135.7,286046997.3,N
1638385155.6,286046995.3,Y
1638385175.4,286046999.4,P
1638385195.2,286046997.4,P
